Location: Berlin
(42.3812°N, 71.6370°W)
Time: 22:09:58
(UTC+00:00)

Cosmos 2056 Rocket - Pass Details

Date: 15 November 2025
Orbit: 739 x 795 km, 74.0° (Epoch: 13 December)

Event Time Altitude Azimuth Distance (km) Brightness Sun altitude
Exits shadow 10:22:02 - 232° (SW) 2,753 6.0 -14.1°
Reaches altitude 10° 10:23:12 10° 237° (WSW) 2,360 5.6 -13.9°
Maximum altitude 10:27:57 31° 299° (WNW) 1,362 4.3 -13.0°
Drops below altitude 10° 10:32:43 10° 1° (N) 2,364 5.9 -12.1°
Sets 10:35:23 0° 12° (NNE) 3,290 6.8 -11.7°
